Location: Newark
(48.2308°N, 120.8549°W)
Time: 05:22:38
(UTC+00:00)

Vanguard 2 Rocket - All Passes

Search period start: 06 June 2020 00:00
Search period end: 16 June 2020 00:00
Orbit: 556 x 3325 km, 32.9° (Epoch: 05 June)

Date Brightness Start Highest point End Pass type
(mag) Time Alt. Az. Time Alt. Az. Time Alt. Az.
06 Jun - 01:38:15 10° WSW 01:46:09 27° SSW 01:57:51 10° SE daylight
06 Jun - 03:54:05 10° WSW 04:00:31 15° SSW 04:08:14 10° S daylight
06 Jun - 20:20:34 10° SSE 20:21:24 10° SE 20:22:18 10° SE daylight
06 Jun - 22:27:53 10° SW 22:33:04 26° SSE 22:40:51 10° ESE daylight
07 Jun - 00:39:09 10° WSW 00:46:06 28° S 00:56:43 10° SE daylight
07 Jun - 02:53:07 10° WSW 03:00:09 18° SSW 03:09:19 10° S daylight
07 Jun - 21:29:50 10° SSW 21:33:52 20° SSE 21:39:26 10° ESE daylight
07 Jun - 23:40:22 10° SW 23:46:20 27° S 23:55:27 10° SE daylight
08 Jun - 01:53:08 10° WSW 01:59:58 21° SSW 02:09:21 10° SSE daylight
08 Jun - 20:32:24 10° S 20:34:54 13° SSE 20:37:52 10° SE daylight
08 Jun - 22:41:51 10° SW 22:46:50 25° S 22:54:14 10° SE daylight
09 Jun - 00:53:46 10° WSW 00:59:58 22° SSW 01:08:51 10° SSE daylight
09 Jun - 03:11:06 10° SW 03:13:55 11° SSW 03:17:00 10° SSW daylight
09 Jun - 21:43:34 10° SW 21:47:35 21° SSE 21:53:09 10° ESE daylight
09 Jun - 23:54:47 10° SW 00:00:13 22° S 00:08:05 10° SE daylight
10 Jun - 02:09:13 10° SW 02:13:48 14° SSW 02:19:21 10° S daylight
10 Jun - 20:45:38 10° SSW 20:48:32 15° SSE 20:52:08 10° SE daylight
10 Jun - 22:56:05 10° SW 23:00:42 22° S 23:07:17 10° SE daylight
11 Jun - 01:09:06 10° SW 01:13:51 16° SSW 01:19:59 10° SSE daylight
11 Jun - 19:48:55 10° SSE 19:49:35 10° SSE 19:50:18 10° SSE daylight
11 Jun - 21:57:37 10° SW 22:01:25 19° S 22:06:33 10° SE daylight
12 Jun - 00:09:42 10° SW 00:14:08 17° SSW 00:20:00 10° SSE daylight
12 Jun - 20:59:22 10° SSW 21:02:18 16° S 21:05:55 10° SE daylight
12 Jun - 23:10:43 10° SW 23:14:37 17° S 23:19:46 10° SSE daylight
13 Jun - 20:01:33 10° S 20:03:18 12° SSE 20:05:13 10° SE daylight
13 Jun - 22:12:01 10° SW 22:15:18 16° S 22:19:30 10° SSE daylight
14 Jun - 00:26:34 10° SSW 00:28:06 11° SSW 00:29:46 10° S daylight
14 Jun - 21:13:33 10° SSW 21:16:08 14° S 21:19:16 10° SE daylight
14 Jun - 23:26:29 10° SSW 23:28:35 11° SSW 23:30:57 10° S daylight
15 Jun - 20:15:18 10° SSW 20:17:05 12° S 20:19:05 10° SSE daylight
15 Jun - 22:27:15 10° SSW 22:29:14 12° S 22:31:29 10° SSE daylight
